Wind_Speed
5 4 4 3 3 3 4 4 4 5 4 4 4 5 7 8 7 7 7 8 8 9 9 10 9 9 9 9 10 10 10 10 9 8 8 7 7 7 6 6 5 5 4
4 4 3 3 3 3 3 4 4 4 4 4 4 5 7 7 7 7 8 8 8 9 9 10 9 9 11 11 10 9 10 9 8 8 8 7 7 6 6 6 6 5 5
4 4 4 3 3 4 4 3 4 4 4 4 3 4 6 8 8 8 8 8 9 9 10 9 10 11 11 10 9 9 9 9 8 8 7 7 7 7 7 6 6 5 5
4 4 4 3 3 4 4 4 4 3 3 3 3 4 5 7 8 9 9 9 9 9 9 9 11 10 9 9 9 9 9 9 9 8 7 7 7 7 7 7 6 5 5
5 4 4 4 3 3 4 4 3 3 3 3 3 4 6 7 8 8 9 9 8 8 8 9 10 10 9 9 9 9 9 9 9 8 8 8 7 6 7 7 6 5 5
5 5 4 4 4 4 4 4 4 4 4 3 4 5 6 7 8 8 8 8 7 7 7 8 9 10 10 9 9 8 8 9 10 9 8 8 7 7 6 6 6 5 4
5 6 5 5 4 4 5 4 4 4 5 4 5 6 6 7 7 8 9 8 8 8 8 8 10 10 9 9 9 9 9 10 10 9 8 8 6 6 6 6 5 5 5
5 6 6 5 5 5 5 5 5 5 4 4 5 7 7 7 8 8 8 9 9 8 7 7 9 10 9 9 10 10 10 10 10 9 8 7 6 6 6 5 5 5 5
6 6 6 6 5 5 5 5 4 5 5 5 6 6 7 7 8 9 8 9 10 9 8 8 9 9 9 9 10 10 11 11 10 9 8 7 6 6 5 5 5 4 4
6 6 6 6 5 5 4 4 5 6 6 6 6 6 7 7 7 9 10 10 10 10 9 9 9 9 9 9 10 11 11 10 9 9 7 6 6 5 4 4 4 4 4
7 7 8 7 6 5 5 5 6 7 7 7 7 7 7 7 8 9 10 9 9 10 10 10 9 9 9 9 10 10 10 9 9 8 7 7 6 5 5 4 4 4 3
8 8 8 8 7 7 6 6 7 8 8 7 8 8 8 8 9 9 9 9 8 10 10 9 8 8 8 8 9 9 9 10 9 8 7 6 5 5 5 4 4 3 3
9 9 8 8 7 7 7 7 8 8 8 8 9 9 9 9 9 10 9 9 8 9 10 9 8 8 8 8 9 9 9 9 8 7 6 5 5 4 4 4 4 4 3
9 9 9 8 8 7 8 8 8 8 8 9 10 10 10 10 10 9 9 8 8 9 8 8 9 8 8 8 9 8 8 7 6 6 5 5 4 4 4 4 4 4 4
9 8 8 8 8 8 8 8 8 9 9 9 9 9 9 9 9 8 8 8 8 8 8 7 7 7 7 7 7 7 6 6 6 5 5 5 5 5 4 4 4 4 5
10 9 8 7 8 8 8 8 8 9 8 9 9 9 8 8 8 7 7 7 7 7 7 6 6 6 6 6 5 5 6 6 5 4 5 5 6 6 5 5 5 6 6
11 10 9 8 8 8 8 8 8 9 9 8 8 8 7 7 7 7 7 6 6 6 6 6 6 5 6 5 5 5 5 5 5 5 5 5 6 6 6 6 6 7 7
11 10 10 9 8 8 8 8 8 8 8 8 8 7 6 6 6 6 6 5 5 5 5 5 5 4 5 4 5 5 5 5 5 5 5 6 6 6 7 7 7 7 8
11 10 10 9 9 8 8 8 8 8 7 7 7 6 5 5 5 5 5 4 4 4 4 4 4 4 4 5 5 5 4 5 5 5 6 7 7 7 7 8 8 8 9
11 10 10 9 8 8 8 7 7 7 7 6 6 5 4 4 4 4 4 3 3 3 4 4 4 4 5 5 5 5 5 5 5 5 6 6 7 7 8 8 9 9 9
11 10 10 9 8 7 7 7 6 7 6 6 6 5 4 4 4 4 4 3 3 2 3 3 4 3 3 4 4 4 5 5 5 6 6 7 7 8 8 8 9 9 9
10 10 10 9 8 8 7 7 6 6 6 6 5 4 4 4 4 3 3 3 3 3 3 4 3 3 3 3 3 4 4 5 5 5 6 7 7 8 9 8 8 9 9
9 9 9 9 8 8 8 7 6 5 5 4 4 3 3 3 3 2 2 2 3 3 2 2 3 3 3 3 4 4 4 4 5 6 6 6 7 7 8 8 9 10 10
8 8 8 8 8 7 7 7 6 6 5 4 3 3 3 3 2 3 3 3 2 2 2 1 1 2 3 3 4 4 4 5 5 6 6 7 7 8 9 10 10 10 11
6 6 7 7 7 7 6 6 6 5 4 3 3 3 2 2 1 2 2 2 2 2 2 2 3 3 3 4 4 4 4 5 6 6 7 7 8 9 10 10 11 11 11
4 5 5 5 5 5 5 5 4 4 3 2 1 1 1 1 1 1 2 1 2 2 3 3 3 4 4 5 5 5 6 6 6 6 7 8 9 10 10 11 11 11 11
Wind_Direction
55 53 53 63 77 99 98 104 107 102 115 128 127 127 134 143 147 143 148 153 157 159 160 162 163 164 168 166 171 166 163 164 164 171 171 164 168 168 161 155 157 156 148
60 62 55 55 65 87 101 104 108 103 110 121 127 135 147 146 147 144 150 152 156 159 160 168 167 168 169 163 162 160 161 159 155 161 169 169 168 165 160 158 163 163 154
72 69 63 64 76 87 90 90 107 114 113 116 125 137 157 158 154 150 150 150 151 155 161 168 167 166 168 166 162 161 155 156 158 161 166 167 168 167 166 161 162 159 153
69 69 66 77 91 95 94 93 105 111 115 123 123 131 150 158 152 149 149 149 149 154 163 164 163 162 166 163 158 162 161 164 165 163 163 165 165 165 169 165 161 158 154
65 64 61 69 86 97 102 105 108 109 110 116 119 137 147 149 153 151 152 150 151 159 165 171 166 170 167 164 164 164 163 164 164 163 163 162 157 160 160 165 164 160 154
69 67 67 68 78 91 103 110 112 108 111 116 118 132 138 144 148 153 154 150 153 163 165 168 171 173 166 167 166 166 168 168 167 166 169 162 161 165 163 163 158 160 156
62 63 66 70 80 93 99 108 123 117 120 124 120 134 140 150 153 157 157 154 156 155 158 166 175 173 169 165 165 164 167 168 169 163 167 163 164 163 167 163 160 157 152
56 58 63 74 82 88 88 94 109 120 128 124 120 129 146 156 158 162 161 157 156 156 154 159 169 172 169 167 168 170 169 170 166 165 166 165 165 175 172 163 165 163 163
56 61 64 72 81 92 99 88 103 111 131 128 127 133 144 160 164 169 168 157 148 150 147 145 152 161 159 163 165 172 173 170 170 171 170 168 172 177 173 163 166 168 168
56 57 59 74 88 94 100 99 102 114 122 125 125 129 132 142 143 157 156 157 152 142 138 145 147 146 151 153 157 163 165 167 167 169 170 170 174 174 166 164 162 166 175
61 60 64 77 90 102 106 108 107 111 117 120 121 122 123 132 133 135 143 147 147 136 141 145 145 145 154 158 159 161 165 168 171 167 174 177 174 170 168 168 175 174 184
64 65 66 74 82 94 105 115 117 120 121 124 123 121 122 130 130 132 139 144 144 143 146 148 149 151 156 161 163 163 169 175 171 173 174 172 169 169 175 185 192 193 209
64 67 70 73 80 92 105 113 114 122 126 124 128 125 128 132 130 129 132 136 140 144 147 148 148 155 161 164 165 166 170 174 175 179 172 167 171 179 187 198 210 216 217
64 66 70 73 78 92 98 100 107 118 123 123 127 127 130 130 127 126 131 135 138 140 145 147 158 164 165 168 171 170 174 173 173 179 182 181 186 191 199 208 216 221 231
61 66 67 74 79 86 95 98 102 111 120 127 127 127 128 130 130 130 136 138 136 138 145 149 156 163 167 163 166 170 171 175 179 192 195 201 207 210 215 227 222 233 243
59 61 64 68 74 83 92 94 101 110 117 120 121 123 128 135 137 138 139 143 139 138 143 146 155 162 164 162 169 178 181 184 187 195 208 217 220 219 224 228 233 240 249
60 62 64 68 75 82 90 91 97 107 112 118 119 125 130 135 142 145 148 150 147 145 149 152 158 166 172 175 182 186 191 203 216 223 227 230 230 229 231 236 241 246 254
59 61 63 67 75 81 85 86 90 104 112 118 120 124 129 138 141 153 157 157 157 160 160 166 175 179 184 195 202 203 208 214 225 226 227 233 239 242 245 248 250 254 259
57 59 61 65 72 80 85 88 93 98 108 115 120 125 130 141 147 154 163 165 168 170 174 180 184 194 201 209 216 221 224 228 230 227 233 238 243 250 255 256 256 261 265
54 58 60 64 70 77 83 89 94 99 101 110 115 116 123 143 153 160 165 169 185 192 197 206 213 213 212 216 224 233 237 233 242 246 246 247 253 258 260 263 262 264 268
51 55 61 65 69 74 79 85 91 98 96 101 108 110 112 120 133 148 153 154 167 184 209 218 216 219 220 223 233 237 245 248 251 251 252 255 259 261 263 268 264 264 268
52 55 60 63 66 72 77 79 85 92 91 87 89 99 113 120 119 123 134 146 152 162 182 203 209 218 215 233 245 248 253 251 249 250 257 259 259 266 267 267 269 268 270
56 57 60 61 64 70 72 75 83 89 91 90 90 93 99 111 111 120 126 135 147 141 154 189 206 213 233 253 258 257 251 253 255 254 256 259 265 272 271 271 272 272 273
55 55 57 60 62 67 69 72 78 81 82 88 93 98 100 101 109 118 124 127 146 157 166 186 222 238 248 259 267 264 262 259 255 257 261 265 268 271 272 274 276 277 279
50 51 53 57 62 66 65 67 69 73 77 89 106 112 114 108 120 140 146 151 194 212 217 225 242 252 259 268 274 272 276 271 268 269 270 273 276 276 276 277 280 282 283
39 39 40 47 57 60 58 57 55 54 56 67 107 140 149 153 159 194 207 244 253 248 247 246 253 260 268 275 283 285 278 280 283 282 282 282 282 281 280 281 281 282 283
Height
5859 5858 5858 5858 5858 5858 5858 5857 5858 5858 5858 5859 5859 5860 5861 5861 5862 5862 5863 5864 5865 5867 5868 5870 5871 5873 5874 5876 5878 5880 5882 5884 5886 5887 5889 5890 5891 5893 5894 5894 5896 5896 5897
5859 5859 5858 5858 5858 5858 5858 5858 5858 5858 5858 5859 5859 5860 5861 5862 5862 5862 5863 5864 5865 5866 5868 5870 5871 5873 5874 5877 5879 5881 5883 5884 5886 5888 5889 5890 5892 5893 5894 5895 5896 5897 5898
5859 5859 5859 5858 5858 5858 5858 5858 5858 5859 5859 5859 5859 5860 5861 5862 5862 5863 5864 5865 5865 5866 5868 5869 5871 5873 5875 5877 5879 5882 5883 5885 5886 5888 5890 5891 5892 5893 5895 5896 5897 5898 5898
5860 5859 5859 5858 5858 5858 5858 5859 5859 5859 5859 5859 5859 5860 5861 5862 5863 5864 5865 5866 5866 5867 5868 5870 5871 5874 5876 5878 5880 5882 5884 5886 5887 5889 5890 5891 5893 5894 5895 5896 5897 5898 5899
5860 5860 5859 5859 5858 5858 5858 5859 5859 5859 5859 5859 5859 5859 5861 5862 5863 5864 5865 5867 5867 5868 5869 5870 5871 5874 5877 5879 5881 5883 5884 5886 5888 5889 5891 5892 5893 5894 5895 5896 5897 5898 5899
5861 5860 5860 5859 5859 5859 5859 5859 5859 5859 5859 5859 5859 5859 5861 5862 5864 5865 5866 5867 5868 5868 5869 5870 5871 5874 5877 5879 5881 5883 5884 5886 5888 5890 5891 5892 5894 5895 5896 5897 5898 5899 5900
5861 5861 5860 5859 5859 5859 5859 5859 5859 5860 5860 5859 5859 5860 5861 5862 5864 5865 5867 5868 5868 5869 5870 5871 5873 5875 5877 5879 5882 5884 5885 5886 5888 5890 5891 5893 5894 5895 5896 5897 5898 5899 5900
5862 5861 5860 5860 5860 5860 5860 5860 5860 5860 5860 5860 5860 5860 5861 5863 5864 5866 5867 5868 5869 5870 5871 5872 5873 5875 5877 5879 5882 5884 5885 5886 5888 5891 5892 5893 5895 5896 5897 5898 5899 5899 5900
5862 5862 5861 5860 5860 5860 5860 5860 5860 5860 5860 5861 5861 5861 5862 5863 5864 5866 5867 5869 5869 5870 5872 5873 5875 5877 5879 5880 5882 5884 5886 5887 5889 5891 5893 5894 5895 5896 5897 5898 5899 5900 5901
5863 5862 5862 5861 5861 5861 5861 5861 5861 5861 5861 5862 5862 5863 5863 5864 5864 5865 5867 5869 5870 5871 5873 5875 5877 5878 5880 5881 5883 5885 5886 5888 5890 5892 5893 5894 5895 5896 5897 5898 5899 5900 5901
5864 5863 5862 5862 5862 5862 5862 5862 5862 5862 5863 5863 5863 5864 5864 5865 5866 5867 5869 5871 5872 5873 5874 5876 5878 5879 5881 5882 5884 5886 5887 5889 5890 5892 5893 5895 5896 5897 5898 5899 5899 5900 5901
5865 5864 5864 5863 5863 5863 5863 5862 5863 5863 5864 5864 5865 5866 5866 5867 5868 5870 5871 5873 5874 5875 5876 5878 5879 5881 5882 5884 5885 5886 5888 5889 5890 5892 5894 5895 5896 5897 5898 5898 5899 5900 5900
5867 5866 5865 5864 5864 5864 5864 5864 5864 5864 5865 5866 5866 5867 5868 5869 5870 5872 5873 5874 5875 5876 5878 5879 5880 5881 5883 5884 5886 5887 5889 5890 5892 5893 5894 5895 5896 5897 5898 5898 5899 5900 5900
5868 5867 5866 5865 5865 5864 5864 5865 5865 5865 5866 5867 5868 5870 5870 5871 5872 5874 5875 5876 5877 5878 5879 5880 5881 5883 5884 5885 5887 5888 5890 5891 5892 5893 5894 5895 5896 5897 5897 5898 5899 5899 5900
5869 5868 5867 5866 5866 5866 5866 5866 5867 5867 5868 5869 5870 5871 5872 5873 5874 5875 5876 5877 5878 5879 5881 5881 5883 5884 5885 5886 5887 5889 5890 5891 5892 5893 5894 5895 5896 5896 5897 5898 5898 5899 5899
5870 5869 5869 5868 5868 5868 5868 5868 5869 5869 5870 5870 5871 5872 5874 5875 5876 5877 5878 5879 5880 5881 5882 5883 5884 5885 5886 5887 5888 5889 5890 5891 5892 5892 5893 5894 5895 5896 5896 5897 5898 5898 5898
5872 5871 5871 5870 5870 5870 5870 5870 5871 5871 5871 5872 5873 5874 5875 5876 5877 5878 5879 5880 5881 5882 5883 5884 5885 5886 5887 5887 5888 5889 5890 5891 5891 5892 5893 5894 5894 5895 5895 5896 5896 5897 5897
5874 5873 5873 5872 5872 5872 5872 5872 5873 5873 5873 5874 5875 5875 5876 5877 5878 5879 5880 5881 5882 5883 5884 5885 5886 5886 5887 5888 5888 5889 5890 5890 5891 5891 5892 5893 5893 5894 5894 5894 5895 5895 5895
5876 5875 5874 5874 5874 5874 5874 5874 5874 5875 5875 5875 5876 5877 5877 5878 5879 5880 5881 5882 5883 5884 5885 5885 5886 5886 5887 5887 5888 5889 5889 5890 5890 5890 5891 5891 5892 5893 5893 5893 5893 5893 5893
5878 5877 5876 5876 5876 5876 5876 5876 5876 5876 5877 5877 5878 5878 5878 5879 5880 5881 5882 5882 5883 5884 5884 5885 5886 5886 5887 5887 5888 5888 5888 5889 5889 5889 5890 5890 5891 5891 5891 5891 5891 5891 5891
5880 5879 5878 5878 5878 5878 5877 5877 5878 5878 5878 5879 5879 5880 5880 5880 5881 5881 5882 5883 5883 5884 5884 5885 5886 5886 5886 5887 5887 5887 5888 5888 5888 5888 5888 5889 5889 5889 5889 5889 5889 5889 5889
5882 5881 5880 5880 5879 5879 5879 5879 5879 5879 5880 5880 5880 5881 5881 5881 5882 5882 5883 5883 5884 5884 5884 5885 5885 5886 5886 5886 5887 5887 5887 5887 5887 5887 5887 5887 5888 5887 5887 5887 5887 5887 5887
5884 5883 5882 5882 5881 5881 5881 5880 5880 5881 5881 5881 5881 5882 5882 5882 5882 5883 5883 5884 5884 5884 5885 5885 5885 5886 5886 5886 5886 5886 5886 5886 5886 5886 5886 5886 5886 5886 5886 5886 5885 5885 5885
5886 5885 5884 5883 5883 5883 5882 5882 5882 5882 5882 5882 5882 5882 5883 5883 5883 5883 5884 5884 5884 5885 5885 5885 5885 5885 5886 5886 5885 5885 5885 5885 5885 5885 5885 5885 5885 5884 5884 5884 5883 5883 5883
5887 5886 5885 5885 5884 5884 5884 5884 5883 5883 5883 5883 5883 5883 5883 5883 5883 5884 5884 5884 5885 5885 5885 5885 5885 5885 5885 5885 5885 5884 5884 5884 5883 5884 5883 5883 5883 5883 5882 5882 5881 5881 5880
5887 5887 5886 5886 5885 5885 5885 5885 5884 5884 5883 5883 5883 5883 5883 5883 5883 5884 5884 5884 5884 5884 5884 5884 5884 5884 5884 5884 5884 5883 5883 5883 5882 5882 5882 5881 5881 5880 5880 5879 5879 5878 5878